| time (UTC) | temp C | wind direction | speed KPH | gust KPH | rain 1hr cm | rain 24hr cm | rain mn cm | humidity % | barometer mb |
| 20260504001604 | 8 | 9 | 0.0 | 0.0 | 0.05 | 0.15 | 0.15 | 86 | 1008.6 |
| 20260504001103 | 8 | 10 | 0.0 | 0.0 | 0.05 | 0.15 | 0.15 | 85 | 1008.7 |
| 20260504000604 | 8 | 11 | 0.0 | 0.0 | 0.05 | 0.13 | 0.13 | 85 | 1008.7 |
| 20260503235604 | 8 | 1 | 0.0 | 0.0 | 0.03 | 0.10 | 0.10 | 84 | 1008.7 |
| 20260503234603 | 8 | 11 | 0.0 | 0.0 | 0.00 | 0.08 | 0.08 | 84 | 1008.6 |
| 20260503234103 | 8 | 11 | 0.0 | 0.0 | 0.00 | 0.08 | 0.08 | 85 | 1008.6 |
| 20260503233603 | 8 | 11 | 0.0 | 0.0 | 0.00 | 0.08 | 0.08 | 85 | 1008.5 |
| 20260503233103 | 8 | 5 | 0.0 | 0.0 | 0.00 | 0.08 | 0.08 | 86 | 1008.6 |
| 20260503232603 | 7 | 2 | 0.0 | 0.0 | 0.00 | 0.08 | 0.08 | 86 | 1008.6 |
| 20260503232103 | 7 | 1 | 0.0 | 0.0 | 0.00 | 0.08 | 0.08 | 86 | 1008.7 |
| 20260503231104 | 7 | 10 | 0.0 | 0.0 | 0.05 | 0.08 | 0.08 | 87 | 1008.8 |
| 20260503230604 | 7 | 11 | 0.0 | 0.0 | 0.05 | 0.08 | 0.08 | 87 | 1008.7 |
| 20260503230104 | 7 | 9 | 0.0 | 0.0 | 0.05 | 0.08 | 0.08 | 87 | 1008.8 |
| 20260503225604 | 7 | 8 | 0.0 | 0.0 | 0.05 | 0.08 | 0.08 | 87 | 1008.8 |
| 20260503225103 | 7 | 2 | 0.0 | 0.0 | 0.05 | 0.08 | 0.08 | 87 | 1008.8 |
| 20260503224604 | 7 | 1 | 0.0 | 0.0 | 0.05 | 0.08 | 0.08 | 87 | 1008.8 |
| 20260503224104 | 7 | 0 | 0.0 | 0.0 | 0.05 | 0.08 | 0.08 | 87 | 1008.8 |
| 20260503223604 | 7 | 9 | 0.0 | 0.0 | 0.05 | 0.08 | 0.08 | 87 | 1008.9 |
| 20260503223103 | 7 | 2 | 0.0 | 0.0 | 0.05 | 0.08 | 0.08 | 86 | 1008.8 |
| 20260503222603 | 7 | 1 | 0.0 | 0.0 | 0.05 | 0.08 | 0.08 | 86 | 1009.1 |
| 20260503222103 | 7 | 1 | 0.0 | 0.0 | 0.05 | 0.08 | 0.08 | 85 | 1009.0 |
| 20260503221603 | 7 | 1 | 0.0 | 0.0 | 0.03 | 0.05 | 0.05 | 85 | 1009.0 |
| 20260503221104 | 7 | 1 | 0.0 | 0.0 | 0.00 | 0.05 | 0.05 | 86 | 1009.1 |
| 20260503220604 | 7 | 10 | 0.0 | 0.0 | 0.00 | 0.05 | 0.05 | 85 | 1009.1 |
| 20260503220104 | 7 | 9 | 0.0 | 0.0 | 0.03 | 0.05 | 0.05 | 84 | 1009.1 |
| 20260503215604 | 7 | 9 | 0.0 | 0.0 | 0.03 | 0.05 | 0.05 | 84 | 1009.1 |
| 20260503215103 | 7 | 9 | 0.0 | 0.0 | 0.03 | 0.05 | 0.05 | 84 | 1009.2 |
| 20260503214103 | 7 | 10 | 0.0 | 0.0 | 0.03 | 0.05 | 0.05 | 83 | 1009.1 |
| 20260503213603 | 7 | 8 | 0.0 | 0.0 | 0.03 | 0.05 | 0.05 | 84 | 1009.3 |
| 20260503213104 | 7 | 12 | 0.0 | 0.0 | 0.03 | 0.05 | 0.05 | 83 | 1009.3 |
| 20260503212104 | 8 | 8 | 0.0 | 0.0 | 0.03 | 0.05 | 0.05 | 82 | 1009.4 |
| 20260503211604 | 8 | 9 | 0.0 | 0.0 | 0.03 | 0.05 | 0.05 | 81 | 1009.5 |
| 20260503211103 | 8 | 10 | 0.0 | 0.0 | 0.03 | 0.05 | 0.05 | 80 | 1009.6 |
| 20260503210603 | 8 | 7 | 0.0 | 0.0 | 0.03 | 0.05 | 0.05 | 77 | 1009.6 |
| 20260503210104 | 9 | 11 | 0.0 | 0.0 | 0.00 | 0.03 | 0.03 | 73 | 1009.5 |
| 20260503205603 | 10 | 0 | 0.0 | 0.0 | 0.03 | 0.03 | 0.03 | 69 | 1009.4 |
| 20260503205104 | 10 | 0 | 0.0 | 0.0 | 0.03 | 0.03 | 0.03 | 66 | 1009.3 |
| 20260503204604 | 10 | 0 | 0.0 | 0.0 | 0.03 | 0.03 | 0.03 | 64 | 1009.2 |
| 20260503204103 | 10 | 0 | 0.0 | 0.0 | 0.03 | 0.03 | 0.03 | 63 | 1009.1 |
| 20260503203603 | 10 | 12 | 0.0 | 0.0 | 0.03 | 0.03 | 0.03 | 65 | 1009.0 |
| 20260503203104 | 10 | 1 | 0.0 | 0.0 | 0.03 | 0.03 | 0.03 | 64 | 1008.9 |
| 20260503202603 | 10 | 0 | 0.0 | 0.0 | 0.03 | 0.03 | 0.03 | 63 | 1008.9 |
| 20260503202103 | 10 | 0 | 0.0 | 0.0 | 0.03 | 0.03 | 0.03 | 64 | 1009.0 |
| 20260503201603 | 10 | 12 | 0.0 | 0.0 | 0.03 | 0.03 | 0.03 | 65 | 1009.0 |
| 20260503200604 | 10 | 9 | 0.0 | 0.0 | 0.03 | 0.03 | 0.03 | 63 | 1009.1 |
| 20260503200104 | 11 | 0 | 0.0 | 0.0 | 0.03 | 0.03 | 0.03 | 61 | 1009.3 |
| 20260503195604 | 11 | 0 | 0.0 | 0.0 | 0.00 | 0.00 | 0.00 | 60 | 1009.5 |
| 20260503195104 | 12 | 0 | 0.0 | 0.0 | 0.00 | 0.00 | 0.00 | 55 | 1009.5 |
| 20260503194604 | 12 | 11 | 0.0 | 0.0 | 0.00 | 0.00 | 0.00 | 50 | 1009.3 |
| 20260503194104 | 12 | 10 | 0.0 | 0.0 | 0.00 | 0.00 | 0.00 | 46 | 1009.3 |
| 20260503193103 | 13 | 1 | 0.0 | 0.0 | 0.00 | 0.00 | 0.00 | 43 | 1009.2 |
| 20260503192604 | 13 | 2 | 0.0 | 0.0 | 0.00 | 0.00 | 0.00 | 43 | 1009.3 |
| 20260503191604 | 13 | 9 | 0.0 | 0.0 | 0.00 | 0.00 | 0.00 | 44 | 1009.2 |
| 20260503191104 | 12 | 1 | 0.0 | 0.0 | 0.00 | 0.00 | 0.00 | 43 | 1009.4 |
| 20260503190604 | 12 | 2 | 0.0 | 0.0 | 0.00 | 0.00 | 0.00 | 42 | 1009.5 |
| 20260503190104 | 13 | 1 | 0.0 | 0.0 | 0.00 | 0.00 | 0.00 | 43 | 1009.6 |
| 20260503185604 | 12 | 1 | 0.0 | 0.0 | 0.00 | 0.00 | 0.00 | 43 | 1009.6 |
| 20260503184604 | 12 | 0 | 0.0 | 0.0 | 0.00 | 0.00 | 0.00 | 43 | 1009.9 |
| 20260503184104 | 12 | 0 | 0.0 | 0.0 | 0.00 | 0.00 | 0.00 | 43 | 1010.0 |
| 20260503183604 | 12 | 0 | 0.0 | 0.0 | 0.00 | 0.00 | 0.00 | 43 | 1010.1 |
| 20260503183103 | 12 | 2 | 0.0 | 0.0 | 0.00 | 0.00 | 0.00 | 42 | 1010.2 |
| 20260503182603 | 12 | 9 | 0.0 | 0.0 | 0.00 | 0.00 | 0.00 | 43 | 1010.3 |
| 20260503182104 | 12 | 11 | 0.0 | 0.0 | 0.00 | 0.00 | 0.00 | 44 | 1010.5 |
| 20260503181603 | 12 | 9 | 0.0 | 0.0 | 0.00 | 0.00 | 0.00 | 43 | 1010.6 |
| 20260503181104 | 12 | 0 | 0.0 | 0.0 | 0.00 | 0.00 | 0.00 | 44 | 1010.7 |
| 20260503180604 | 12 | 1 | 0.0 | 0.0 | 0.00 | 0.00 | 0.00 | 43 | 1010.8 |
| 20260503180104 | 12 | 0 | 0.0 | 0.0 | 0.00 | 0.00 | 0.00 | 43 | 1010.9 |
| 20260503175604 | 12 | 10 | 0.0 | 0.0 | 0.00 | 0.00 | 0.00 | 39 | 1011.0 |
| 20260503175104 | 12 | 8 | 0.0 | 0.0 | 0.00 | 0.00 | 0.00 | 38 | 1010.9 |
| 20260503174604 | 12 | 89 | 0.0 | 0.0 | 0.00 | 0.00 | 0.00 | 38 | 1010.9 |
| 20260503174103 | 12 | 0 | 0.0 | 0.0 | 0.00 | 0.00 | 0.00 | 37 | 1010.8 |
| 20260503173604 | 12 | 0 | 0.0 | 0.0 | 0.00 | 0.00 | 0.00 | 37 | 1010.9 |
| 20260503173103 | 13 | 12 | 0.0 | 0.0 | 0.00 | 0.00 | 0.00 | 37 | 1011.0 |
| 20260503172603 | 13 | 10 | 0.0 | 0.0 | 0.00 | 0.00 | 0.00 | 36 | 1010.9 |
| 20260503172103 | 13 | 0 | 0.0 | 0.0 | 0.00 | 0.00 | 0.00 | 36 | 1011.0 |
| 20260503171604 | 13 | 12 | 0.0 | 0.0 | 0.00 | 0.00 | 0.00 | 35 | 1010.9 |
| 20260503170603 | 13 | 0 | 0.0 | 0.0 | 0.00 | 0.00 | 0.00 | 36 | 1011.0 |
| 20260503170104 | 13 | 0 | 0.0 | 0.0 | 0.00 | 0.00 | 0.00 | 36 | 1011.1 |
| 20260503160104 | 13 | 10 | 0.0 | 0.0 | 0.00 | 0.00 | 0.00 | 37 | 1012.2 |
| 20260503150603 | 12 | 10 | 0.0 | 0.0 | 0.00 | 0.00 | 0.00 | 38 | 1012.9 |
| 20260503150103 | 11 | 11 | 0.0 | 0.0 | 0.00 | 0.00 | 0.00 | 39 | 1012.9 |
| 20260503140104 | 9 | 9 | 0.0 | 0.0 | 0.00 | 0.00 | 0.00 | 43 | 1013.3 |
| 20260503131103 | 7 | 9 | 0.0 | 0.0 | 0.00 | 0.00 | 0.00 | 54 | 1013.8 |
| 20260503130104 | 6 | 10 | 0.0 | 0.0 | 0.00 | 0.00 | 0.00 | 55 | 1013.8 |
| 20260503120103 | 3 | 12 | 0.0 | 0.0 | 0.00 | 0.00 | 0.00 | 61 | 1013.8 |
| 20260503110604 | -2 | 1 | 0.0 | 0.0 | 0.00 | 0.00 | 0.00 | 87 | 1014.0 |
| 20260503110104 | -3 | 2 | 0.0 | 0.0 | 0.00 | 0.00 | 0.00 | 87 | 1014.0 |
| 20260503100104 | -3 | 0 | 0.0 | 0.0 | 0.00 | 0.00 | 0.00 | 85 | 1014.0 |
| 20260503090104 | -3 | 9 | 0.0 | 0.0 | 0.00 | 0.00 | 0.00 | 85 | 1014.3 |
| 20260503081603 | -3 | 0 | 0.0 | 0.0 | 0.00 | 0.00 | 0.00 | 82 | 1014.6 |
| 20260503081104 | -3 | 0 | 0.0 | 0.0 | 0.00 | 0.00 | 0.00 | 82 | 1014.6 |
| 20260503080603 | -3 | 0 | 0.0 | 0.0 | 0.00 | 0.00 | 0.00 | 82 | 1014.6 |
| 20260503080104 | -3 | 0 | 0.0 | 0.0 | 0.00 | 0.00 | 0.00 | 82 | 1014.6 |
| 20260503072603 | -2 | 0 | 0.0 | 0.0 | 0.00 | 0.00 | 0.00 | 82 | 1014.7 |
| 20260503072103 | -2 | 0 | 0.0 | 0.0 | 0.00 | 0.00 | 0.00 | 82 | 1014.6 |
| 20260503071103 | -2 | 11 | 0.0 | 0.0 | 0.00 | 0.00 | 0.00 | 81 | 1014.6 |
| 20260503070603 | -2 | 10 | 0.0 | 0.0 | 0.00 | 0.00 | 0.00 | 81 | 1014.7 |
| 20260503070104 | -2 | 11 | 0.0 | 0.0 | 0.00 | 0.00 | 0.00 | 81 | 1014.7 |
| 20260503060104 | -2 | 1 | 0.0 | 0.0 | 0.00 | 0.00 | 0.00 | 78 | 1015.0 |
| 20260503055104 | -2 | 2 | 0.0 | 0.0 | 0.00 | 0.00 | 0.00 | 78 | 1015.1 |
| 20260503054604 | -2 | 10 | 0.0 | 0.0 | 0.00 | 0.00 | 0.00 | 77 | 1015.1 |
| 20260503054103 | -2 | 11 | 0.0 | 0.0 | 0.00 | 0.00 | 0.00 | 77 | 1015.2 |
| 20260503053604 | -2 | 9 | 0.0 | 0.0 | 0.00 | 0.00 | 0.00 | 77 | 1015.3 |
| 20260503052603 | -2 | 2 | 0.0 | 0.0 | 0.00 | 0.00 | 0.00 | 75 | 1015.3 |
| 20260503052104 | -2 | 1 | 0.0 | 0.0 | 0.00 | 0.00 | 0.00 | 75 | 1015.4 |
| 20260503051104 | -2 | 9 | 0.0 | 0.0 | 0.00 | 0.00 | 0.00 | 73 | 1015.4 |
| 20260503050104 | -1 | 10 | 0.0 | 0.0 | 0.00 | 0.00 | 0.00 | 74 | 1015.5 |
| 20260503045604 | -1 | 9 | 0.0 | 0.0 | 0.00 | 0.00 | 0.00 | 74 | 1015.5 |
| 20260503045104 | -1 | 9 | 0.0 | 0.0 | 0.00 | 0.00 | 0.00 | 73 | 1015.5 |
| 20260503044604 | -1 | 9 | 0.0 | 0.0 | 0.00 | 0.00 | 0.00 | 71 | 1015.5 |
| 20260503044104 | -1 | 0 | 0.0 | 0.0 | 0.00 | 0.00 | 0.00 | 71 | 1015.6 |
| 20260503043604 | -1 | 0 | 0.0 | 0.0 | 0.00 | 0.00 | 0.00 | 72 | 1015.7 |
| 20260503043104 | -1 | 0 | 0.0 | 0.0 | 0.00 | 0.00 | 0.00 | 72 | 1015.7 |
| 20260503042603 | -1 | 0 | 0.0 | 0.0 | 0.00 | 0.00 | 0.00 | 72 | 1015.7 |
| 20260503041103 | -1 | 11 | 0.0 | 0.0 | 0.00 | 0.00 | 0.00 | 72 | 1015.7 |
| 20260503040604 | -1 | 10 | 0.0 | 0.0 | 0.00 | 0.00 | 0.00 | 71 | 1015.7 |
| 20260503040103 | -1 | 10 | 0.0 | 0.0 | 0.00 | 0.00 | 0.00 | 70 | 1015.8 |
| 20260503035103 | -1 | 1 | 0.0 | 0.0 | 0.00 | 0.00 | 0.00 | 68 | 1015.8 |
| 20260503034604 | -1 | 1 | 0.0 | 0.0 | 0.00 | 0.00 | 0.00 | 68 | 1015.8 |
| 20260503034103 | -1 | 1 | 0.0 | 0.0 | 0.00 | 0.00 | 0.00 | 67 | 1015.9 |
| 20260503033604 | -1 | 1 | 0.0 | 0.0 | 0.00 | 0.00 | 0.00 | 67 | 1015.9 |
| 20260503033103 | 0 | 0 | 0.0 | 0.0 | 0.00 | 0.00 | 0.00 | 68 | 1015.9 |
| 20260503032604 | 0 | 0 | 0.0 | 0.0 | 0.00 | 0.00 | 0.00 | 67 | 1015.9 |
| 20260503032103 | 0 | 0 | 0.0 | 0.0 | 0.00 | 0.00 | 0.00 | 65 | 1015.9 |
| 20260503031604 | 0 | 10 | 0.0 | 0.0 | 0.00 | 0.00 | 0.00 | 65 | 1015.9 |
| 20260503031103 | 0 | 11 | 0.0 | 0.0 | 0.00 | 0.00 | 0.00 | 64 | 1016.0 |
| 20260503030603 | 0 | 11 | 0.0 | 0.0 | 0.00 | 0.00 | 0.00 | 64 | 1016.0 |
| 20260503025604 | 0 | 2 | 0.0 | 0.0 | 0.00 | 0.00 | 0.00 | 62 | 1016.0 |
| 20260503025103 | 0 | 1 | 0.0 | 0.0 | 0.00 | 0.00 | 0.00 | 62 | 1016.0 |
| 20260503024604 | 0 | 0 | 0.0 | 0.0 | 0.00 | 0.00 | 0.00 | 61 | 1016.1 |
| 20260503024104 | 0 | 0 | 0.0 | 0.0 | 0.00 | 0.00 | 0.00 | 61 | 1016.1 |
| 20260503023604 | 0 | 12 | 0.0 | 0.0 | 0.00 | 0.00 | 0.00 | 61 | 1016.1 |
| 20260503023103 | 0 | 9 | 0.0 | 0.0 | 0.00 | 0.00 | 0.00 | 60 | 1016.1 |
| 20260503022604 | 0 | 0 | 0.0 | 0.0 | 0.00 | 0.00 | 0.00 | 60 | 1016.0 |
| 20260503022104 | 0 | 0 | 0.0 | 0.0 | 0.00 | 0.00 | 0.00 | 60 | 1016.0 |
| 20260503021604 | 0 | 1 | 0.0 | 0.0 | 0.00 | 0.00 | 0.00 | 60 | 1016.1 |
| 20260503021103 | 0 | 0 | 0.0 | 0.0 | 0.00 | 0.00 | 0.00 | 59 | 1016.1 |
| 20260503020604 | 1 | 0 | 0.0 | 0.0 | 0.00 | 0.00 | 0.00 | 58 | 1016.1 |
| 20260503015604 | 1 | 1 | 0.0 | 0.0 | 0.00 | 0.00 | 0.00 | 58 | 1016.1 |
| 20260503015104 | 1 | 0 | 0.0 | 0.0 | 0.00 | 0.00 | 0.00 | 58 | 1016.1 |
| 20260503014603 | 1 | 0 | 0.0 | 0.0 | 0.00 | 0.00 | 0.00 | 57 | 1016.0 |
| 20260503014104 | 1 | 0 | 0.0 | 0.0 | 0.00 | 0.00 | 0.00 | 57 | 1016.0 |
| 20260503013603 | 1 | 0 | 0.0 | 0.0 | 0.00 | 0.00 | 0.00 | 57 | 1016.0 |
| 20260503013103 | 2 | 1 | 0.0 | 0.0 | 0.00 | 0.00 | 0.00 | 57 | 1016.0 |
| 20260503012603 | 2 | 2 | 0.0 | 0.0 | 0.00 | 0.00 | 0.00 | 56 | 1015.9 |
| 20260503012103 | 2 | 1 | 0.0 | 0.0 | 0.00 | 0.00 | 0.00 | 56 | 1015.9 |
| 20260503011603 | 2 | 1 | 0.0 | 0.0 | 0.00 | 0.00 | 0.00 | 55 | 1015.8 |
| 20260503011104 | 2 | 10 | 0.0 | 0.0 | 0.00 | 0.00 | 0.00 | 55 | 1015.8 |
| 20260503010104 | 2 | 1 | 0.0 | 0.0 | 0.00 | 0.00 | 0.00 | 53 | 1015.8 |
| 20260503005603 | 3 | 89 | 0.0 | 0.0 | 0.00 | 0.00 | 0.00 | 52 | 1015.7 |
| 20260503005104 | 3 | 10 | 0.0 | 0.0 | 0.00 | 0.00 | 0.00 | 52 | 1015.7 |
| 20260503004604 | 3 | 2 | 0.0 | 0.0 | 0.00 | 0.00 | 0.00 | 51 | 1015.7 |
| 20260503004103 | 3 | 0 | 0.0 | 0.0 | 0.00 | 0.00 | 0.00 | 50 | 1015.7 |
| 20260503003603 | 3 | 0 | 0.0 | 0.0 | 0.00 | 0.00 | 0.00 | 49 | 1015.6 |
| 20260503003104 | 3 | 0 | 0.0 | 0.0 | 0.00 | 0.00 | 0.00 | 49 | 1015.6 |
| 20260503002604 | 3 | 0 | 0.0 | 0.0 | 0.00 | 0.00 | 0.00 | 49 | 1015.6 |